Regional Weather Roundup
Issued by NWS

Home | Current Version | Previous Version | Text Only | Print | Product List | Glossary Off
Versions: 1 2 3 4 5 6 7 8 9 10 11 12 13 14 15 16 17 18 19 20 21 22 23 24 25 26 27 28 29 30 31 32 33 34 35 36 37 38 39 40 41 42 43 44 45 46 47 48 49 50

000
ASUS43 KIND 280959
RWRIN

WEATHER ROUNDUP FOR INDIANA
NATIONAL WEATHER SERVICE INDIANAPOLIS IN
600 AM EDT FRI AUG 28 2015

NOTE: "FAIR" INDICATES FEW OR NO CLOUDS BELOW 12,000 FEET WITH NO
SIGNIFICANT WEATHER AND/OR OBSTRUCTIONS TO VISIBILITY.

* - STATION DOES NOT REPORT WEATHER SUCH AS PRECIPITATION OR FOG.

+ - STATION NOT QUALITY CONTROLLED BY THE NATIONAL WEATHER SERVICE.
    USE DATA WITH CAUTION...ESPECIALLY DEWPOINT AND RELATIVE
    HUMIDITY OBSERVATIONS.

INZ001>003-010>013-019-020-281100-
NORTHWEST INDIANA

CITY           SKY/WX    TMP DP  RH WIND       PRES   REMARKS
GARY /AIRPORT/ PTCLDY    59  55  88 SE5       30.12F
KNOX *+        CLEAR     50  50 100 E3        30.14S
MONTICELLO +   CLEAR     58  58  97 CALM      30.14S
RENSSELAER +   CLEAR     54  54 100 E3        30.14S FOG

$$

LMZ046-743>745-281100-
SOUTHERN LAKE MICHIGAN

STATION/POSITION TIME  TEMP    WIND        PRES    WAVE
                       AIR SEA DIR/SP/G            HT
                 (UTC) (F)     (DEG/KT/KT) (MB)    (FT)
BURNS HARBOR     0900   63     140/ 10/ 13 1020.3F
MICHIGAN CITY    0900   60     120/  9/ 10   N/A
5NW MICH CITY    0900   63 71  160/ 12/ 14   N/A     1

$$

INZ004-005-014>016-021>024-281100-
NORTH CENTRAL INDIANA

CITY           SKY/WX    TMP DP  RH WIND       PRES   REMARKS
GOSHEN         PTCLDY    57  54  89 SE5       30.16S
SOUTH BEND     CLEAR     55  53  93 E6        30.16F

$$

INZ006>009-017-018-025>027-281100-
NORTHEAST INDIANA

CITY           SKY/WX    TMP DP  RH WIND       PRES   REMARKS
ANGOLA *+      PTCLDY    52  52 100 CALM      30.19R
FORT WAYNE     MOCLDY    56  54  93 E3        30.18R

$$

INZ028-029-035-036-043>045-051>053-281100-
WEST CENTRAL INDIANA

CITY           SKY/WX    TMP DP  RH WIND       PRES   REMARKS
CRAWFORDSVL +  CLEAR     53  53 100 CALM      30.15S
GREENCASTLE +  PTCLDY    55  54  94 CALM      30.15F FOG
LAFAYETTE      CLEAR     58  55  90 CALM      30.13S
TERRE HAUTE    CLOUDY    59  57  93 CALM      30.14R

$$

INZ030>032-037>040-046>048-054>057-064-065-281100-
CENTRAL INDIANA

CITY           SKY/WX    TMP DP  RH WIND       PRES   REMARKS
FRANKFORT +    CLEAR    N/A N/A N/A SE3       30.16S HAZE
INDIANAPOLIS   CLEAR     61  56  83 E5        30.14S
-EAGLE CREEK   CLEAR     58  56  93 MISG      30.15S
KOKOMO *+      PTCLDY    54  50  87 SE5       30.17S
MT COMFORT *+    N/A     52 N/A N/A CALM      30.17F VSB 1
SHELBYVILLE    CLEAR     54  51  90 E3        30.16R

$$

INZ033-034-041-042-049-050-058-059-281100-
EAST CENTRAL INDIANA

CITY           SKY/WX    TMP DP  RH WIND       PRES   REMARKS
MUNCIE         MOCLDY    52  52 100 CALM      30.18R

$$

INZ060-061-067>069-081>083-085>088-281100-
SOUTHWEST INDIANA

CITY           SKY/WX    TMP DP  RH WIND       PRES   REMARKS
EVANSVILLE     CLEAR     57  56  96 CALM      30.14R FOG
HUNTINGBURG *+ CLEAR     55  52  88 N3        30.15S

$$

INZ062-063-066-070>080-084-089>092-281100-
SOUTH CENTRAL AND SOUTHEAST INDIANA

CITY           SKY/WX    TMP DP  RH WIND       PRES   REMARKS
BLOOMINGTON    CLEAR     53  52  96 CALM      30.15S FOG
MADISON *+     CLEAR     52  50  93 CALM      30.18R
SEYMOUR +      FOG       50  50 100 CALM      30.16R VSB<1/4

$$



USA.gov is the U.S. government's official web portal to all federal, state and local government web resources and services.